{"data":{"norad_id":53849,"epoch":"2026-09-20T05:38:31.007904Z","epoch_age_seconds":106903,"freshness":"FRESH","line1":"1 53849U 22114AH  26263.23508111  .00000204  00000+0  18340-4 0  9994","line2":"2 53849  53.1601 125.2348 0001324  84.0408 276.0744 15.31704806222557","mean_motion":15.31704806,"eccentricity":0.0001324,"inclination_deg":53.1601,"raan_deg":125.2348,"arg_perigee_deg":84.0408,"mean_anomaly_deg":276.0744,"bstar":1.834e-5,"rev_number":22255,"period_min":94.012892977761,"perigee_km":469.81887940984,"apogee_km":471.63245824454,"semimajor_km":6848.8626688272,"source":"CELESTRAK","updated_at":"2026-09-21T09:00:33.022796Z"}}